Holland, MI

3:51 AM EDT on August 20, 2017 (GMT -0400)
Tulip City

Weather History for KBIV - December, 2012

Change the Weather History Date:

Thursday, December 6, 2012

  Actual Average Record
Temperature  
Mean Temperature 36 °F 34 °F  
Max Temperature 44 °F 39 °F 62 °F (1982)
Min Temperature 28 °F 29 °F 11 °F (1958)
Degree Days  
Heating Degree Days 29 31  
Month to date heating degree days 121 181  
Since 1 July heating degree days 1362 1404  
Cooling Degree Days 0 0  
Month to date cooling degree days 0 0  
Year to date cooling degree days 1067 693  
Moisture  
Dew Point 27 °F    
Average Humidity 66    
Maximum Humidity 75    
Minimum Humidity 57    
Precipitation  
Precipitation 0.00 in 0.10 in 0.76 in (1998)
Month to date precipitation 0.34 0.61  
Year to date precipitation 31.18 34.77  
Sea Level Pressure  
Sea Level Pressure 30.10 in    
Wind  
Wind Speed 9 mph (SSE)    
Max Wind Speed 16 mph    
Max Gust Speed 21 mph    
Visibility 10 miles    
Events      
T = Trace of Precipitation, MM = Missing Value Source: NWS Daily Summary

Daily Weather History Graph

Daily Weather History Graph

Search for Another Location

Airport or City:

Trip Planner

Search our weather history database for the weather conditions in past years. The results will help you decide how hot, cold, wet, or windy it might be!

Date:

Astronomy

Dec. 06, 2012 Rise Set
Actual Time 8:00 AM EST 5:10 PM EST
Civil Twilight 7:28 AM EST 5:42 PM EST
Nautical Twilight 6:53 AM EST 6:17 PM EST
Astronomical Twilight 6:19 AM EST 6:52 PM EST
Moon 12:06 AM EST (12/6) 12:45 PM EST (12/6)
Length of Visible Light 10h 13m
Length of Day
9h 09m
Waning Gibbous, 49% of the Moon is Illuminated
Dec 6
Waning Gibbous
Dec 13
New
Dec 20
First Quarter
Dec 28
Full
Jan 4
Last Quarter

Hourly Weather History & Observations

Time (EST) Temp. Windchill Dew Point Humidity Pressure Visibility Wind Dir Wind Speed Gust Speed Precip Events Conditions
12:53 AM 28.9 °F 21.1 °F 21.0 °F 72% 30.28 in 10.0 mi ESE 8.1 mph - N/A   Clear
1:53 AM 28.9 °F 21.9 °F 21.0 °F 72% 30.28 in 10.0 mi ESE 6.9 mph - N/A   Clear
2:53 AM 30.9 °F 23.5 °F 23.0 °F 72% 30.27 in 10.0 mi ESE 8.1 mph - N/A   Clear
3:53 AM 30.9 °F 24.3 °F 23.0 °F 72% 30.27 in 10.0 mi SE 6.9 mph - N/A   Clear
4:53 AM 32.0 °F 24.2 °F 23.0 °F 69% 30.25 in 10.0 mi SE 9.2 mph - N/A   Clear
5:53 AM 32.0 °F 22.5 °F 23.0 °F 69% 30.22 in 10.0 mi SE 12.7 mph - N/A   Clear
6:53 AM 32.0 °F 25.6 °F 23.0 °F 69% 30.21 in 10.0 mi SSE 6.9 mph - N/A   Clear
7:53 AM 33.1 °F 24.4 °F 23.0 °F 66% 30.20 in 10.0 mi SSE 11.5 mph - N/A   Mostly Cloudy
8:53 AM 34.0 °F 26.0 °F 23.0 °F 64% 30.19 in 10.0 mi SSE 10.4 mph - N/A   Mostly Cloudy
9:53 AM 35.1 °F 26.4 °F 24.1 °F 64% 30.18 in 10.0 mi SSE 12.7 mph - N/A   Clear
10:53 AM 37.0 °F 29.3 °F 25.0 °F 62% 30.15 in 10.0 mi SSE 11.5 mph - N/A   Clear
11:53 AM 39.0 °F 32.8 °F 26.1 °F 60% 30.12 in 10.0 mi SSE 9.2 mph - N/A   Partly Cloudy
12:53 PM 39.9 °F 35.1 °F 27.0 °F 60% 30.08 in 10.0 mi SSE 6.9 mph - N/A   Overcast
1:53 PM 42.1 °F 37.7 °F 28.0 °F 58% 30.05 in 10.0 mi SSE 6.9 mph - N/A   Partly Cloudy
2:53 PM 43.0 °F 38.8 °F 28.0 °F 56% 30.01 in 10.0 mi South 6.9 mph - N/A   Clear
3:53 PM 43.0 °F 38.2 °F 28.9 °F 58% 29.99 in 10.0 mi South 8.1 mph - N/A   Scattered Clouds
4:53 PM 42.1 °F 39.2 °F 30.0 °F 62% 29.99 in 10.0 mi SSE 4.6 mph - N/A   Overcast
5:53 PM 42.1 °F 36.6 °F 30.0 °F 62% 29.97 in 10.0 mi SSE 9.2 mph - N/A   Overcast
6:53 PM 42.1 °F 34.9 °F 30.9 °F 65% 29.95 in 10.0 mi South 13.8 mph - N/A   Overcast
7:53 PM 43.0 °F 36.8 °F 32.0 °F 65% 29.95 in 10.0 mi South 11.5 mph - N/A   Overcast
8:53 PM 43.0 °F 36.8 °F 33.1 °F 68% 29.94 in 10.0 mi SSE 11.5 mph - N/A   Overcast
9:53 PM 43.0 °F 40.3 °F 33.1 °F 68% 29.96 in 10.0 mi South 4.6 mph - N/A   Overcast
10:53 PM 42.1 °F 37.7 °F 34.0 °F 73% 29.95 in 10.0 mi South 6.9 mph - N/A   Mostly Cloudy
11:53 PM 43.0 °F 40.3 °F 34.0 °F 71% 29.94 in 10.0 mi SSW 4.6 mph - N/A   Overcast